Weather History for Randolph AFB, TX

Change the Weather History Date:

Saturday, December 14, 2013

  Actual Average Record
Temperature  
Mean Temperature 50 °F -  
Max Temperature 57 °F 61 °F 80 °F (1996)
Min Temperature 42 °F 39 °F 28 °F (1997)
Degree Days  
Heating Degree Days 16    
Moisture  
Dew Point 41 °F    
Average Humidity 79    
Maximum Humidity 100    
Minimum Humidity 45    
Precipitation  
Precipitation 0.00 in - - ()
Sea Level Pressure  
Sea Level Pressure 30.02 in    
Wind  
Wind Speed 8 mph (WNW)    
Max Wind Speed 23 mph    
Max Gust Speed 29 mph    
Visibility 6 miles    
Events Fog    
Averages and records for this station are not official NWS values.
T = Trace of Precipitation, MM = Missing Value Source: NWS Daily Summary

Daily Weather History Graph

Daily Weather History Graph

Search for Another Location

Airport:

Trip Planner

Search our weather history database for the weather conditions in past years. The results will help you decide how hot, cold, wet, or windy it might be!

Date:

Astronomy

Dec. 14, 2013 Rise Set
Actual Time 7:19 AM CST 5:36 PM CST
Civil Twilight 6:53 AM CST 6:02 PM CST
Nautical Twilight 6:24 AM CST 6:31 PM CST
Astronomical Twilight 5:54 AM CST 7:01 PM CST
Moon 3:52 PM CST (12/14) 4:49 AM CST (12/14)
Length of Visible Light 11h 08m
Length of Day
10h 16m
Waxing Gibbous, 94% of the Moon is Illuminated
Dec 14
Waxing Gibbous
Dec 17
Full
Dec 25
Last Quarter
Jan 1
New
Jan 7
First Quarter

Hourly Weather History & Observations

Time (CST) Temp. Windchill Dew Point Humidity Pressure Visibility Wind Dir Wind Speed Gust Speed Precip Events Conditions
12:23 AM 50.0 °F - 48.2 °F 94% 29.93 in 5.0 mi West 9.2 mph - N/A   Overcast
12:58 AM 49.1 °F - 47.1 °F 93% 29.93 in 6.0 mi West 9.2 mph - N/A   Overcast
1:38 AM 48.2 °F - 46.4 °F 93% 29.92 in 5.0 mi WNW 5.8 mph - N/A   Overcast
1:43 AM 48.2 °F - 46.4 °F 93% 29.92 in 4.0 mi West 8.1 mph - N/A   Overcast
1:53 AM 48.2 °F - 46.4 °F 93% 29.92 in 3.0 mi West 6.9 mph - N/A   Overcast
1:58 AM 48.2 °F - 46.4 °F 93% 29.93 in 3.0 mi West 6.9 mph - N/A   Overcast
2:08 AM 48.2 °F - 46.4 °F 93% 29.92 in 2.5 mi WSW 5.8 mph - N/A   Overcast
2:28 AM 48.2 °F - 46.4 °F 93% 29.91 in 1.5 mi West 5.8 mph - N/A   Overcast
2:33 AM 48.2 °F - 46.4 °F 93% 29.92 in 1.0 mi West 4.6 mph - N/A   Mist
2:38 AM 48.2 °F - 46.4 °F 93% 29.92 in 0.8 mi West 4.6 mph - N/A   Mist
2:48 AM 48.2 °F - 46.4 °F 93% 29.92 in 0.5 mi WNW 8.1 mph - N/A Fog Fog
2:58 AM 47.5 °F - 45.9 °F 94% 29.93 in 0.5 mi West 6.9 mph - N/A Fog Fog
3:08 AM 46.4 °F 42.4 °F 46.4 °F 100% 29.92 in 0.8 mi West 8.1 mph - N/A   Mist
3:18 AM 46.4 °F 42.9 °F 44.6 °F 93% 29.91 in 0.8 mi WNW 6.9 mph - N/A   Mist
3:28 AM 46.4 °F 43.5 °F 44.6 °F 93% 29.91 in 0.5 mi WNW 5.8 mph - N/A Fog Fog
3:48 AM 46.4 °F - 44.6 °F 93% 29.92 in 0.8 mi WNW 2.3 mph - N/A   Mist
3:58 AM 46.2 °F 44.1 °F 44.6 °F 94% 29.93 in 1.0 mi WSW 4.6 mph - N/A   Mist
4:03 AM 46.4 °F 44.3 °F 44.6 °F 93% 29.92 in 2.5 mi SW 4.6 mph - N/A   Partly Cloudy
4:08 AM 46.4 °F 44.3 °F 44.6 °F 93% 29.92 in 0.8 mi WSW 4.6 mph - N/A   Mist
4:13 AM 46.4 °F 44.3 °F 44.6 °F 93% 29.92 in 0.5 mi West 4.6 mph - N/A Fog Fog
4:18 AM 46.4 °F 44.3 °F 44.6 °F 93% 29.92 in 1.5 mi WSW 4.6 mph - N/A   Partly Cloudy
4:23 AM 44.6 °F - 44.6 °F 100% 29.93 in 6.0 mi SW 2.3 mph - N/A   Clear
4:43 AM 44.6 °F 40.7 °F 42.8 °F 93% 29.93 in 8.0 mi West 6.9 mph - N/A   Clear
4:58 AM 45.1 °F 39.9 °F 43.5 °F 94% 29.94 in 9.0 mi West 10.4 mph - N/A   Clear
5:08 AM 44.6 °F 39.7 °F 44.6 °F 100% 29.93 in 10.0 mi West 9.2 mph - N/A   Clear
5:23 AM 44.6 °F 41.4 °F 42.8 °F 93% 29.94 in 10.0 mi NNW 5.8 mph - N/A   Clear
5:58 AM 43.5 °F 41.9 °F 41.9 °F 94% 29.95 in 10.0 mi WNW 3.5 mph - N/A   Clear
6:08 AM 42.8 °F 40.1 °F 41.0 °F 93% 29.95 in 9.0 mi WNW 4.6 mph - N/A   Clear
6:28 AM 42.8 °F 38.0 °F 42.8 °F 100% 29.96 in 10.0 mi West 8.1 mph - N/A   Clear
6:58 AM 47.5 °F - 43.3 °F 86% 29.99 in 10.0 mi West 5.8 mph - N/A   Clear
7:33 AM 46.4 °F 44.3 °F 41.0 °F 81% 30.00 in 10.0 mi West 4.6 mph - N/A   Scattered Clouds
7:58 AM 46.8 °F - 40.8 °F 80% 30.01 in 10.0 mi West 8.1 mph - N/A   Scattered Clouds
8:58 AM 49.6 °F - 41.7 °F 74% 30.04 in 10.0 mi NW 12.7 mph - N/A   Scattered Clouds
9:58 AM 53.6 °F - 38.7 °F 57% 30.07 in 10.0 mi NNW 15.0 mph 20.7 mph N/A   Scattered Clouds
10:58 AM 56.5 °F - 38.1 °F 50% 30.09 in 10.0 mi North 17.3 mph 25.3 mph N/A   Clear
11:58 AM 56.5 °F - 37.2 °F 49% 30.11 in 10.0 mi NNW 23.0 mph 28.8 mph N/A   Clear
12:58 PM 55.9 °F - 39.0 °F 53% 30.12 in 10.0 mi North 19.6 mph 25.3 mph N/A   Clear
1:58 PM 57.4 °F - 37.8 °F 48% 30.11 in 10.0 mi North 19.6 mph 24.2 mph N/A   Clear
2:58 PM 57.9 °F - 37.0 °F 46% 30.13 in 10.0 mi North 18.4 mph - N/A   Clear
3:58 PM 57.6 °F - 36.1 °F 45% 30.15 in 10.0 mi North 17.3 mph - N/A   Clear
4:58 PM 55.4 °F - 35.1 °F 46% 30.19 in 10.0 mi NNW 13.8 mph - N/A   Clear
5:58 PM 51.4 °F - 33.4 °F 50% 30.23 in 10.0 mi North 9.2 mph - N/A   Clear
6:58 PM 49.8 °F - 31.1 °F 49% 30.25 in 10.0 mi North 6.9 mph - N/A   Clear
7:58 PM 46.9 °F - 31.3 °F 55% 30.28 in 10.0 mi North 8.1 mph - N/A   Clear
8:58 PM 45.3 °F 40.1 °F 29.8 °F 55% 30.31 in 10.0 mi North 10.4 mph - N/A   Clear
9:58 PM 44.8 °F 38.7 °F 29.1 °F 54% 30.32 in 10.0 mi North 12.7 mph - N/A   Clear
10:58 PM 44.4 °F 38.6 °F 28.0 °F 53% 30.32 in 10.0 mi North 11.5 mph - N/A   Clear
11:58 PM 43.9 °F 37.2 °F 27.0 °F 51% 30.33 in 10.0 mi NNW 13.8 mph - N/A   Clear